Location: Spangle
(47.4302°N, 117.3779°W)
Time: 15:14:38
(UTC+00:00)

Envisat - Pass Details

Date: 21 April 2026
Orbit: 761 x 762 km, 98.4° (Epoch: 15 May)

Event Time Altitude Azimuth Distance (km) Brightness Sun altitude
Rises 09:11:39 0° 29° (NNE) 3,235 7.5 -27.8°
Reaches altitude 10° 09:14:49 10° 50° (NE) 2,302 6.3 -27.6°
Maximum altitude 09:18:02 17° 89° (E) 1,874 5.2 -27.4°
Enters shadow 09:20:06 13° 117° (ESE) 2,060 5.2 -27.2°
